Terminal Aerodrome Forecast
Issued by NWS Buffalo, NY

Home | Current Version | Previous Version | Text Only | Print | Product List | Glossary On
Versions: 1 2 3 4 5 6 7 8 9 10 11 12 13 14 15 16 17 18 19 20 21 22 23 24 25 26 27
000
FTUS41 KBUF 011721
TAFBUF
TAF
KBUF 011721Z 0118/0218 24008KT P6SM FEW250
     FM020900 21006KT 3SM BR BKN007
     FM021300 21005KT P6SM BKN250
     FM021600 24009KT P6SM SCT250=

USA.gov is the U.S. government's official web portal to all federal, state and local government web resources and services.